GW3653 Weather Reports


time (UTC)temp
C
wind
direction
speed
KPH
gust
KPH
rain 1hr
cm
rain 24hr
cm
rain mn
cm
humidity
%
barometer
mb
20260506013519 15 0.0 0.0 0.00 0.00 0.00 76 1033.4
20260506012557 15 0.0 0.0 0.00 0.00 0.00 77 1033.5
20260506011520 15 0.0 0.0 0.00 0.00 0.00 78 1033.4
20260506010519 15 0.0 0.0 0.00 0.00 0.00 79 1033.5
20260506005519 15 0.0 0.0 0.00 0.00 0.00 80 1033.5
20260506004519 14 0.0 0.0 0.00 0.00 0.00 82 1033.3
20260506003519 13 0.0 0.0 0.00 0.00 0.00 83 1033.2
20260506002518 13 0.0 0.0 0.00 0.00 0.00 85 1033.2
20260506001539 13 0.0 0.0 0.00 0.00 0.00 86 1033.0
20260506000539 13 0.0 0.0 0.00 0.00 0.00 86 1032.8
20260505235519 13 0.0 0.0 0.00 0.00 0.00 86 1032.7
20260505234519 13 0.0 0.0 0.00 0.00 0.00 86 1032.6
20260505233519 12 0.0 0.0 0.00 0.00 0.00 85 1032.4
20260505232519 12 0.0 0.0 0.00 0.00 0.00 85 1032.4
20260505231539 12 0.0 0.0 0.00 0.00 0.00 84 1032.3
20260505230519 12 0.0 0.0 0.00 0.00 0.00 84 1032.2
20260505225519 12 0.0 0.0 0.00 0.00 0.00 84 1032.1
20260505224519 12 0.0 0.0 0.00 0.00 0.00 84 1031.8
20260505223519 12 0.0 0.0 0.00 0.00 0.00 84 1031.7
20260505222519 12 0.0 0.0 0.00 0.00 0.00 84 1031.7
20260505221519 12 0.0 0.0 0.00 0.00 0.00 84 1031.7
20260505220519 12 0.0 0.0 0.00 0.00 0.00 83 1031.6
20260505215539 12 0.0 0.0 0.00 0.00 0.00 82 1031.6
20260505214519 12 0.0 0.0 0.00 0.00 0.00 81 1031.6
20260505213519 12 0.0 0.0 0.00 0.00 0.00 81 1031.5
20260505212519 12 0.0 0.0 0.00 0.00 0.00 81 1031.5
20260505211519 12 0.0 0.0 0.00 0.00 0.00 81 1031.4
20260505210519 12 0.0 0.0 0.00 0.00 0.00 81 1031.3
20260505205519 12 0.0 1.6 0.00 0.00 0.00 81 1031.3
20260505204518 12 0.0 0.0 0.00 0.00 0.00 80 1031.2
20260505203519 12 0.0 0.0 0.00 0.00 0.00 80 1031.2
20260505202519 12 0.0 0.0 0.00 0.00 0.00 79 1031.1
20260505201519 12 0.0 0.0 0.00 0.00 0.00 78 1031.1
20260505200539 12 0.0 0.0 0.00 0.00 0.00 78 1031.0
20260505195519 13 0.0 1.6 0.00 0.00 0.00 78 1030.9
20260505194519 13 0.0 0.0 0.00 0.00 0.00 77 1030.9
20260505193519 13 0.0 0.0 0.00 0.00 0.00 77 1030.8
20260505192518 13 0.0 0.0 0.00 0.00 0.00 76 1030.8
20260505191519 13 0.0 1.6 0.00 0.00 0.00 77 1030.8
20260505190518 13 0.0 3.2 0.00 0.00 0.00 78 1030.8
20260505185538 13 0.0 1.6 0.00 0.00 0.00 79 1030.8
20260505184518 13 0.0 1.6 0.00 0.00 0.00 78 1030.8
20260505183518 13 0.0 1.6 0.00 0.00 0.00 77 1030.7
20260505182518 13 0.0 1.6 0.00 0.00 0.00 76 1031.0
20260505181519 13 0.0 0.0 0.00 0.00 0.00 76 1031.1
20260505180518 13 0.0 0.0 0.00 0.00 0.00 76 1031.0
20260505175538 13 0.0 0.0 0.00 0.00 0.00 76 1031.0
20260505174538 13 0.0 3.2 0.00 0.00 0.00 77 1031.0
20260505173518 14 0.0 4.8 0.00 0.00 0.00 76 1031.0
20260505172518 14 0.0 1.6 0.00 0.00 0.00 76 1030.9
20260505171706 14 90 1.6 3.2 0.00 0.00 0.00 76 1030.9
20260505170518 14 0.0 4.8 0.00 0.00 0.00 75 1030.8
20260505165518 14 90 1.6 6.4 0.00 0.00 0.00 76 1030.7
20260505164538 14 0.0 0.0 0.00 0.00 0.00 78 1030.8
20260505163538 13 0.0 1.6 0.00 0.00 0.00 78 1030.8
20260505162518 14 0.0 3.2 0.00 0.00 0.00 78 1030.8
20260505161518 14 0.0 4.8 0.00 0.00 0.00 79 1030.8
20260505160518 14 0.0 1.6 0.00 0.00 0.00 79 1030.8
20260505152518 15 90 1.6 8.0 0.00 0.00 0.00 78 1030.7
20260505151518 15 113 1.6 4.8 0.00 0.00 0.00 78 1030.7
20260505150518 15 113 1.6 6.4 0.00 0.00 0.00 79 1030.8
20260505140518 14 90 1.6 8.0 0.00 0.00 0.00 81 1031.0
20260505124518 13 0.0 0.0 0.00 0.00 0.00 87 1030.3
20260505123518 13 0.0 0.0 0.00 0.00 0.00 87 1030.2
20260505122538 13 0.0 0.0 0.00 0.00 0.00 87 1030.2
20260505121518 13 0.0 0.0 0.00 0.00 0.00 87 1030.2
20260505120538 13 0.0 0.0 0.00 0.00 0.00 87 1030.2
20260505115538 13 0.0 0.0 0.00 0.00 0.00 86 1030.2
20260505114538 14 0.0 0.0 0.00 0.00 0.00 86 1030.1
20260505113518 14 0.0 0.0 0.00 0.00 0.00 86 1030.0
20260505112538 14 0.0 0.0 0.00 0.00 0.00 85 1030.0
20260505111518 14 0.0 0.0 0.00 0.00 0.00 85 1029.9
20260505110518 14 0.0 0.0 0.00 0.00 0.00 85 1029.9
20260505101518 15 0.0 0.0 0.00 0.00 0.00 85 1029.5
20260505100518 15 0.0 0.0 0.00 0.00 0.00 85 1029.5
20260505095518 15 0.0 1.6 0.00 0.00 0.00 84 1029.4
20260505094517 15 0.0 1.6 0.00 0.00 0.00 84 1029.3
20260505093518 15 0.0 1.6 0.00 0.00 0.00 84 1029.3
20260505092518 15 0.0 1.6 0.00 0.00 0.00 84 1029.3
20260505091518 15 0.0 1.6 0.00 0.00 0.00 84 1029.3
20260505090518 15 0.0 0.0 0.00 0.00 0.00 84 1029.1
20260505085518 15 0.0 0.0 0.00 0.00 0.00 84 1029.1
20260505084518 15 0.0 3.2 0.00 0.00 0.00 84 1029.0
20260505083518 15 113 1.6 4.8 0.00 0.00 0.00 84 1028.9
20260505082517 15 0.0 3.2 0.00 0.00 0.00 85 1029.0
20260505081517 15 0.0 1.6 0.00 0.00 0.00 85 1028.9
20260505080518 15 0.0 1.6 0.00 0.00 0.00 85 1028.9
20260505075517 15 0.0 1.6 0.00 0.00 0.00 86 1028.8
20260505074517 15 0.0 3.2 0.00 0.00 0.00 85 1028.9
20260505073517 15 90 1.6 6.4 0.00 0.00 0.00 84 1028.8
20260505072557 15 135 1.6 4.8 0.00 0.00 0.00 84 1028.6
20260505071517 15 90 1.6 6.4 0.00 0.00 0.00 84 1028.5
20260505070517 15 90 1.6 8.0 0.00 0.00 0.00 84 1028.3
20260505065517 15 90 1.6 6.4 0.00 0.00 0.00 85 1028.3
20260505064517 15 113 3.2 6.4 0.00 0.00 0.00 86 1028.2
20260505063517 15 113 1.6 9.7 0.00 0.00 0.00 87 1028.3
20260505062517 15 113 3.2 8.0 0.00 0.00 0.00 87 1028.3
20260505061517 15 113 4.8 11.3 0.00 0.00 0.00 86 1028.3
20260505060539 16 90 4.8 14.5 0.00 0.00 0.00 82 1028.3
20260505055537 17 225 1.6 4.8 0.00 0.00 0.00 78 1028.1
20260505054519 16 225 1.6 6.4 0.00 0.00 0.00 78 1028.1
20260505053519 16 135 1.6 6.4 0.00 0.00 0.00 78 1028.2
20260505052519 16 270 1.6 4.8 0.00 0.00 0.00 78 1028.2
20260505051519 16 0.0 3.2 0.00 0.00 0.00 79 1028.2
20260505050539 16 0.0 3.2 0.00 0.00 0.00 79 1028.2
20260505041519 16 225 3.2 8.0 0.00 0.00 0.00 81 1028.9
20260505040519 16 270 1.6 4.8 0.00 0.00 0.00 82 1029.1
20260505035519 15 270 1.6 4.8 0.00 0.00 0.00 83 1029.1
20260505034519 15 0.0 1.6 0.00 0.00 0.00 85 1029.3
20260505033519 15 0.0 1.6 0.00 0.00 0.00 86 1029.5
20260505032539 15 0.0 3.2 0.00 0.00 0.00 84 1029.5
20260505031519 15 225 3.2 8.0 0.00 0.00 0.00 82 1029.5
20260505030518 15 248 1.6 8.0 0.00 0.00 0.00 81 1029.5
20260505025519 15 0.0 1.6 0.00 0.00 0.00 79 1029.5
20260505024519 15 0.0 1.6 0.00 0.00 0.00 79 1029.5
20260505023559 15 0.0 1.6 0.00 0.00 0.00 80 1029.6
20260505022519 15 248 3.2 8.0 0.00 0.00 0.00 80 1029.7
20260505021518 15 248 1.6 8.0 0.00 0.00 0.00 81 1029.7
20260505020519 15 225 3.2 6.4 0.00 0.00 0.00 80 1029.7
20260505015518 15 248 3.2 6.4 0.00 0.00 0.00 80 1029.8
20260505014519 15 203 1.6 3.2 0.00 0.00 0.00 83 1029.6